Tacoma, WA

4:31 AM PDT on March 23, 2017 (GMT -0700)
McChord Air Force Base

Weather History for KTCM - February, 2014

Change the Weather History Date:

Thursday, February 13, 2014

  Actual Average Record
Temperature  
Mean Temperature 48 °F -  
Max Temperature 54 °F 47 °F 62 °F (2015)
Min Temperature 41 °F 30 °F 19 °F (1995)
Degree Days  
Heating Degree Days 18    
Moisture  
Dew Point 43 °F    
Average Humidity 89    
Maximum Humidity 100    
Minimum Humidity 53    
Precipitation  
Precipitation 0.09 in - - ()
Sea Level Pressure  
Sea Level Pressure 29.92 in    
Wind  
Wind Speed 14 mph (SSW)    
Max Wind Speed 21 mph    
Max Gust Speed 30 mph    
Visibility 10 miles    
Events Rain    
Averages and records for this station are not official NWS values.
T = Trace of Precipitation, MM = Missing Value Source: NWS Daily Summary

Daily Weather History Graph

Daily Weather History Graph

Search for Another Location

Airport or City:

Trip Planner

Search our weather history database for the weather conditions in past years. The results will help you decide how hot, cold, wet, or windy it might be!

Date:

Astronomy

Feb. 13, 2014 Rise Set
Actual Time 7:17 AM PST 5:31 PM PST
Civil Twilight 6:46 AM PST 6:02 PM PST
Nautical Twilight 6:10 AM PST 6:38 PM PST
Astronomical Twilight 5:35 AM PST 7:14 PM PST
Moon 4:45 PM PST (2/13) 6:14 AM PST (2/13)
Length of Visible Light 11h 16m
Length of Day
10h 13m
Waxing Gibbous, 99% of the Moon is Illuminated
Feb 13
Waxing Gibbous
Feb 14
Full
Feb 22
Last Quarter
Mar 1
New
Mar 8
First Quarter

Hourly Weather History & Observations

Time (PST) Temp. Windchill Dew Point Humidity Pressure Visibility Wind Dir Wind Speed Gust Speed Precip Events Conditions
12:03 AM 48.2 °F - 48.2 °F 100% 29.77 in 10.0 mi SW 19.6 mph 27.6 mph N/A   Mostly Cloudy
12:08 AM 48.2 °F - 48.2 °F 100% 29.77 in 10.0 mi SSW 18.4 mph 25.3 mph N/A   Scattered Clouds
12:48 AM 48.2 °F - 48.2 °F 100% 29.79 in 10.0 mi SSW 17.3 mph 23.0 mph N/A Rain Light Rain
12:58 AM 47.8 °F - 47.5 °F 99% 29.81 in 10.0 mi SW 15.0 mph 23.0 mph 0.00 in Rain Light Rain
12:59 AM 48.2 °F - 48.2 °F 100% 29.80 in 10.0 mi SSW 12.7 mph 23.0 mph N/A   Mostly Cloudy
1:05 AM 48.2 °F - 48.2 °F 100% 29.80 in 10.0 mi SSW 11.5 mph - N/A Rain Light Rain
1:29 AM 48.2 °F - 48.2 °F 100% 29.82 in 4.0 mi SW 11.5 mph - N/A Rain Rain
1:39 AM 48.2 °F - 46.4 °F 93% 29.82 in 4.0 mi SW 15.0 mph 25.3 mph N/A Rain Rain
1:44 AM 48.2 °F - 46.4 °F 93% 29.82 in 7.0 mi SW 15.0 mph - N/A Rain Light Rain
1:55 AM 46.4 °F 40.1 °F 46.4 °F 100% 29.83 in 10.0 mi SSW 15.0 mph - N/A   Overcast
1:58 AM 47.3 °F - 46.9 °F 99% 29.85 in 10.0 mi SW 16.1 mph - 0.09 in   Overcast
2:03 AM 46.4 °F 39.8 °F 46.4 °F 100% 29.83 in 10.0 mi SSW 16.1 mph - N/A   Overcast
2:08 AM 46.4 °F 40.4 °F 46.4 °F 100% 29.83 in 10.0 mi SSW 13.8 mph - N/A   Mostly Cloudy
2:58 AM 45.9 °F 40.8 °F 45.7 °F 99% 29.88 in 10.0 mi SW 10.4 mph - N/A   Clear
3:58 AM 45.7 °F 39.8 °F 45.5 °F 99% 29.88 in 10.0 mi SSW 12.7 mph - N/A   Partly Cloudy
4:01 AM 46.4 °F 40.4 °F 44.6 °F 93% 29.87 in 10.0 mi SSW 13.8 mph - N/A Rain Light Rain
4:04 AM 46.4 °F 40.1 °F 44.6 °F 93% 29.87 in 10.0 mi SSW 15.0 mph - N/A   Partly Cloudy
4:54 AM 44.6 °F 38.8 °F 44.6 °F 100% 29.90 in 10.0 mi SSW 11.5 mph - N/A Rain Light Rain
4:58 AM 45.3 °F 38.4 °F 45.1 °F 99% 29.92 in 10.0 mi SSW 16.1 mph 20.7 mph 0.00 in Rain Light Rain
5:03 AM 44.6 °F 38.4 °F 44.6 °F 100% 29.91 in 10.0 mi SW 12.7 mph 20.7 mph N/A   Mostly Cloudy
5:34 AM 44.6 °F 38.1 °F 44.6 °F 100% 29.92 in 10.0 mi SSW 13.8 mph - N/A Rain Light Rain
5:44 AM 44.6 °F 37.8 °F 44.6 °F 100% 29.92 in 10.0 mi SSW 15.0 mph - N/A   Scattered Clouds
5:58 AM 45.0 °F 37.9 °F 44.8 °F 99% 29.95 in 10.0 mi SW 16.1 mph - 0.00 in   Scattered Clouds
6:58 AM 43.5 °F 37.1 °F 43.3 °F 99% 29.99 in 10.0 mi SSW 12.7 mph - N/A   Clear
7:58 AM 43.9 °F 36.8 °F 43.5 °F 99% 30.02 in 10.0 mi SSW 15.0 mph - N/A   Clear
8:05 AM 44.6 °F 37.4 °F 44.6 °F 100% 30.01 in 10.0 mi SW 16.1 mph - N/A Rain Light Rain
8:17 AM 44.6 °F 38.1 °F 44.6 °F 100% 30.01 in 10.0 mi SW 13.8 mph - N/A   Partly Cloudy
8:58 AM 46.0 °F 39.0 °F 45.0 °F 96% 30.04 in 10.0 mi SSW 17.3 mph 24.2 mph 0.00 in   Clear
9:58 AM 48.9 °F - 44.2 °F 84% 30.08 in 10.0 mi SW 12.7 mph 21.9 mph N/A   Scattered Clouds
10:58 AM 50.5 °F - 42.8 °F 75% 30.11 in 10.0 mi SSW 16.1 mph - N/A   Scattered Clouds
11:58 AM 51.6 °F - 43.0 °F 72% 30.09 in 10.0 mi SW 20.7 mph 29.9 mph N/A   Clear
12:58 PM 52.9 °F - 42.8 °F 69% 30.09 in 10.0 mi SW 13.8 mph 26.5 mph N/A   Partly Cloudy
1:58 PM 53.2 °F - 40.3 °F 61% 30.09 in 10.0 mi WSW 11.5 mph - N/A   Scattered Clouds
2:58 PM 54.5 °F - 37.8 °F 53% 30.09 in 10.0 mi SW 12.7 mph - N/A   Partly Cloudy
3:58 PM 52.7 °F - 38.3 °F 58% 30.10 in 10.0 mi South 8.1 mph - N/A   Scattered Clouds
4:58 PM 49.6 °F - 38.8 °F 66% 30.07 in 10.0 mi SSE 5.8 mph - N/A   Scattered Clouds
5:58 PM 46.6 °F - 37.8 °F 71% 30.06 in 10.0 mi SSE 3.5 mph - N/A   Clear
6:58 PM 45.3 °F - 38.3 °F 76% 30.02 in 10.0 mi East 2.3 mph - N/A   Clear
7:58 PM 41.7 °F 39.8 °F 39.6 °F 92% 29.99 in 10.0 mi SE 3.5 mph - N/A   Clear
8:58 PM 42.3 °F 38.6 °F 37.2 °F 82% 29.94 in 10.0 mi SSE 5.8 mph - N/A   Clear
9:58 PM 43.5 °F 40.9 °F 36.5 °F 76% 29.87 in 10.0 mi East 4.6 mph - N/A   Clear
10:58 PM 43.2 °F - 35.8 °F 75% 29.84 in 10.0 mi ENE 2.3 mph - N/A   Partly Cloudy
11:55 PM 42.8 °F 39.3 °F 35.6 °F 76% 29.74 in 10.0 mi ESE 5.8 mph - N/A   Partly Cloudy
11:58 PM 43.7 °F 39.7 °F 34.9 °F 71% 29.76 in 10.0 mi East 6.9 mph - 0.00 in   Scattered Clouds